Stations météo

réclame
Mon MeteoGroup
Granada/Aeropuerto, Espagne (8419): Température de l'air & dewpoint: 18.01.2018 12:00:00 - 24.01.2018 12:00:00 (CET)Granada/Aeropuerto, Espagne (8419): Vitesse du vent: 18.01.2018 12:00:00 - 24.01.2018 12:00:00 (CET)Granada/Aeropuerto, Espagne (8419): Direction du vent: 18.01.2018 12:00:00 - 24.01.2018 12:00:00 (CET)Granada/Aeropuerto, Espagne (8419): reduced air pressure: 18.01.2018 12:00:00 - 24.01.2018 12:00:00 (CET)Granada/Aeropuerto, Espagne (8419): visibility: 18.01.2018 12:00:00 - 24.01.2018 12:00:00 (CET)
Date & Time tt [°C] td [°C] ff [km/h] ff [knt] dd ppp [hPa] vv [km]
24.01.2018 12:00:00 11,1 3,2 0 0 N 1028,9 24
24.01.2018 11:00:00 7,1 3,6 0 0 N 1030,3 16
24.01.2018 10:00:00 3,8 2,2 0 0 N 1031,1 20
24.01.2018 09:00:00 0,0 -0,7 0 0 N 1031,8 10
24.01.2018 08:00:00 -0,6 -1,4 0 0 N 1031,6 20
24.01.2018 07:00:00 -0,2 -1,0 0 0 N 1031,2 20
24.01.2018 06:00:00 0,7 0,0 0 0 N 1030,6 11
24.01.2018 05:00:00 1,2 0,5 0 0 N 1030,4 22
24.01.2018 04:00:00 1,8 1,1 0 0 N 1030,4 11
24.01.2018 03:00:00 2,2 1,5 0 0 N 1030,4 14
24.01.2018 02:00:00 2,7 1,8 0 0 N 1030,4 11
24.01.2018 01:00:00 3,6 2,2 0 0 N 1030,6 11
24.01.2018 00:00:00 4,5 2,8 0 0 N 1030,3 18
23.01.2018 23:00:00 5,8 3,7 5 3 SW 1029,8 27
23.01.2018 22:00:00 7,4 4,6 0 0 N 1028,9 25
23.01.2018 21:00:00 9,0 5,0 4 2 SSW 1028,4 30
23.01.2018 20:00:00 11,2 5,5 8 4 SSW 1027,5 30
23.01.2018 19:00:00 14,1 6,0 0 0 N 1026,0 15
23.01.2018 18:00:00 20,7 6,9 0 0 N 1023,9 26
23.01.2018 17:00:00 20,9 5,4 0 0 N 1023,5 16
23.01.2018 16:00:00 20,7 6,1 0 0 N 1023,5 20
23.01.2018 15:00:00 18,3 5,8 0 0 N 1024,2 14
23.01.2018 14:00:00 16,9 6,4 0 0 N 1025,4 14
23.01.2018 13:00:00 14,3 6,9 0 0 N 1027,1 15
23.01.2018 12:00:00 10,1 5,3 0 0 N 1028,9 14
23.01.2018 11:00:00 7,2 4,3 0 0 N 1030,0 11
23.01.2018 10:00:00 4,0 2,4 0 0 N 1030,6 8
23.01.2018 09:00:00 0,5 0,1 0 0 N 1030,9 -
23.01.2018 08:00:00 0,6 0,2 2 1 SSW 1030,4 6
23.01.2018 07:00:00 0,7 0,3 2 1 N 1030,2 4,5
23.01.2018 06:00:00 0,8 0,2 2 1 SW 1030,0 6
23.01.2018 05:00:00 1,3 0,7 0 0 N 1030,0 7
23.01.2018 04:00:00 2,1 1,5 4 2 SSE 1030,0 -
23.01.2018 03:00:00 2,5 1,7 0 0 N 1029,9 9
23.01.2018 02:00:00 3,3 2,7 0 0 N 1029,9 13
23.01.2018 01:00:00 4,0 3,0 0 0 N 1029,9 11
23.01.2018 00:00:00 5,3 4,3 0 0 N 1029,7 8
22.01.2018 23:00:00 6,6 5,4 0 0 N 1029,0 12
22.01.2018 22:00:00 8,3 5,8 0 0 N 1028,6 30
22.01.2018 21:00:00 9,6 7,0 2 1 SW 1028,0 14
22.01.2018 20:00:00 11,4 7,4 9 5 SW 1027,3 20
22.01.2018 19:00:00 13,8 7,3 5 3 SE 1026,2 30
22.01.2018 18:00:00 18,5 8,2 8 4 WSW 1024,4 30
22.01.2018 17:00:00 19,8 6,9 8 4 WNW 1024,1 30
22.01.2018 16:00:00 19,4 7,2 0 0 N 1024,0 30
22.01.2018 15:00:00 18,5 6,7 0 0 N 1024,8 30
22.01.2018 14:00:00 16,4 6,8 0 0 N 1026,2 30
22.01.2018 13:00:00 14,4 6,8 0 0 N 1028,0 30
22.01.2018 12:00:00 12,2 5,9 0 0 N 1029,4 22
22.01.2018 11:00:00 7,7 5,0 0 0 N 1031,2 12
22.01.2018 10:00:00 5,1 3,6 0 0 N 1031,8 30
22.01.2018 09:00:00 1,1 0,5 0 0 N 1032,5 11
22.01.2018 08:00:00 0,8 0,2 2 1 SSE 1032,4 30
22.01.2018 07:00:00 1,1 0,4 0 0 N 1032,1 25
22.01.2018 06:00:00 1,8 1,2 0 0 N 1031,5 11
22.01.2018 05:00:00 2,4 1,7 0 0 N 1031,6 14
22.01.2018 04:00:00 2,6 1,6 0 0 N 1031,8 16
22.01.2018 03:00:00 3,3 1,9 0 0 N 1031,7 16
22.01.2018 02:00:00 4,6 3,4 4 2 S 1031,5 17
22.01.2018 01:00:00 5,2 3,5 4 2 WSW 1031,9 30
22.01.2018 00:00:00 5,9 3,6 0 0 N 1031,7 28
21.01.2018 23:00:00 7,5 4,3 4 2 S 1031,0 30
21.01.2018 22:00:00 9,8 4,8 8 4 W 1030,0 30
21.01.2018 21:00:00 11,5 5,1 4 2 W 1029,4 30
21.01.2018 20:00:00 13,0 5,6 9 5 N 1028,6 30
21.01.2018 19:00:00 14,9 5,7 9 5 N 1027,4 30
21.01.2018 18:00:00 17,8 5,4 21 11 NNE 1025,8 30
21.01.2018 17:00:00 19,8 6,2 2 1 W 1025,6 30
21.01.2018 16:00:00 18,7 5,6 8 4 NW 1025,8 30
21.01.2018 15:00:00 17,4 5,6 8 4 NW 1026,6 30
21.01.2018 14:00:00 15,6 5,1 8 4 WNW 1027,9 30
21.01.2018 13:00:00 13,0 5,8 4 2 WNW 1029,5 30
21.01.2018 12:00:00 10,0 3,2 0 0 N 1031,1 26
21.01.2018 11:00:00 5,5 2,3 4 2 NNW 1032,5 21
21.01.2018 10:00:00 3,4 1,0 4 2 NW 1032,7 25
21.01.2018 09:00:00 -0,1 -0,7 0 0 N 1033,3 7
21.01.2018 08:00:00 -0,5 -1,1 4 2 W 1033,4 7
21.01.2018 07:00:00 0,1 -0,5 0 0 N 1032,7 6
21.01.2018 06:00:00 0,1 -0,5 4 2 WSW 1032,5 6
21.01.2018 05:00:00 0,2 -0,5 2 1 WSW 1032,5 7
21.01.2018 04:00:00 1,2 0,6 0 0 N 1032,6 6
21.01.2018 03:00:00 1,6 0,6 0 0 N 1032,8 7
21.01.2018 02:00:00 2,7 2,1 0 0 N 1032,8 9
21.01.2018 01:00:00 3,5 2,2 0 0 N 1032,9 6
21.01.2018 00:00:00 4,9 3,9 5 3 SW 1032,0 8
20.01.2018 23:00:00 5,3 3,4 4 2 W 1031,7 9
20.01.2018 22:00:00 7,3 4,5 4 2 E 1031,3 13
20.01.2018 21:00:00 8,8 5,5 5 3 SE 1030,6 13
20.01.2018 20:00:00 10,0 5,4 0 0 N 1029,4 12
20.01.2018 19:00:00 12,2 3,5 11 6 WNW 1028,2 25
20.01.2018 18:00:00 14,2 4,7 11 6 W 1026,8 12
20.01.2018 17:00:00 17,2 4,1 11 6 WNW 1025,9 30
20.01.2018 16:00:00 16,8 5,3 5 3 WNW 1025,6 25
20.01.2018 15:00:00 14,7 5,3 2 1 NW 1026,6 22
20.01.2018 14:00:00 13,0 5,0 5 3 NNW 1027,6 15
20.01.2018 13:00:00 10,2 4,3 4 2 NNW 1029,5 10
20.01.2018 12:00:00 8,4 4,7 0 0 N 1030,7 11
20.01.2018 11:00:00 5,9 3,2 0 0 N 1031,6 11
20.01.2018 10:00:00 2,6 1,4 0 0 N 1031,5 5
20.01.2018 09:00:00 -0,4 -1,0 4 2 W 1031,7 4,0
20.01.2018 08:00:00 -0,8 -1,2 0 0 N 1031,1 5
20.01.2018 07:00:00 0,1 -0,3 0 0 N 1030,5 6
20.01.2018 06:00:00 -0,4 -0,8 4 2 NNW 1029,7 3,5
20.01.2018 05:00:00 0,5 0,1 0 0 N 1029,9 7
20.01.2018 04:00:00 1,0 0,6 4 2 SSW 1029,7 6
20.01.2018 03:00:00 1,3 0,7 0 0 N 1029,0 7
20.01.2018 02:00:00 2,3 1,7 0 0 N 1028,9 8
20.01.2018 01:00:00 3,0 2,4 4 2 W 1028,6 8
20.01.2018 00:00:00 3,4 2,4 0 0 N 1028,0 8
19.01.2018 23:00:00 4,8 3,5 0 0 N 1027,6 9
19.01.2018 22:00:00 6,2 4,6 4 2 SW 1026,3 25
19.01.2018 21:00:00 7,1 5,2 4 2 SSW 1025,3 10
19.01.2018 20:00:00 9,1 6,0 4 2 WNW 1023,6 9
19.01.2018 19:00:00 10,9 6,4 11 6 WSW 1022,0 30
19.01.2018 18:00:00 14,3 6,6 8 4 WSW 1020,8 23
19.01.2018 17:00:00 15,7 6,1 4 2 W 1019,6 25
19.01.2018 16:00:00 15,3 5,8 4 2 W 1019,4 30
19.01.2018 15:00:00 14,6 5,5 0 0 N 1019,4 19
19.01.2018 14:00:00 12,5 5,9 0 0 N 1020,1 20
19.01.2018 13:00:00 10,1 6,1 4 2 NNW 1021,2 20
19.01.2018 12:00:00 9,2 5,9 0 0 N 1021,9 14
19.01.2018 11:00:00 7,3 5,9 0 0 N 1021,8 17
19.01.2018 10:00:00 5,3 4,7 5 3 NW 1021,8 15
19.01.2018 09:00:00 4,3 3,9 4 2 ESE 1021,7 8
19.01.2018 08:00:00 4,3 3,9 0 0 N 1021,1 20
19.01.2018 07:00:00 4,7 4,0 0 0 N 1020,6 25
19.01.2018 06:00:00 5,2 4,5 2 1 SSW 1020,0 8
19.01.2018 05:00:00 5,4 4,5 2 1 E 1020,0 9
19.01.2018 04:00:00 5,7 4,8 0 0 N 1020,1 9
19.01.2018 03:00:00 6,0 4,8 0 0 N 1020,3 11
19.01.2018 02:00:00 6,7 5,3 8 4 S 1020,2 14
19.01.2018 01:00:00 6,8 5,3 0 0 N 1020,4 12
19.01.2018 00:00:00 7,0 5,3 4 2 SW 1020,3 17
18.01.2018 23:00:00 7,4 5,4 0 0 N 1020,1 20
18.01.2018 22:00:00 7,7 5,8 4 2 SW 1020,1 18
18.01.2018 21:00:00 8,5 5,6 0 0 N 1020,5 19
18.01.2018 20:00:00 9,2 5,9 4 2 S 1020,3 17
18.01.2018 19:00:00 11,3 6,0 0 0 N 1020,0 15
18.01.2018 18:00:00 12,4 6,2 0 0 N 1019,8 19
18.01.2018 17:00:00 14,4 6,0 4 2 WSW 1019,1 30
18.01.2018 16:00:00 15,5 4,5 4 2 WNW 1018,7 20
18.01.2018 15:00:00 16,3 2,2 0 0 N 1018,9 30
18.01.2018 14:00:00 16,1 4,8 2 1 SE 1019,8 25
18.01.2018 13:00:00 13,5 4,8 0 0 N 1021,5 20
18.01.2018 12:00:00 11,6 4,1 0 0 N 1023,4 30

tt = Température de l'air
td = dewpoint
ff = Vitesse du vent
dd = Direction du vent
ppp = reduced air pressure
vv = visibility

stations d'obs. à proximité